Showing default

QIANFAN-147, 69106

Orbit data source: Space-Track

QIANFAN-147, 69106 is a Chinese payload satellite in LEO that was launched on Sun, 17 May 2026 UTC via a CHANG ZHENG 8 launch vehicle from the Wenchang Satellite Launch Center (WSC). Payload-class satellites include a variety of spacecraft equipped with specific instruments for various scientific and technological missions. These include communications satellites like Starlink; space stations such as the ISS; scientific satellites like the Hubble; Earth observation satellites from companies like Planet Labs, Umbra, and HawkEye 360; GPS; miniature CubeSats for education and research; and military/defense satellites.

Loading next visibility...
Identifier
69106, 2026-108C
Orbit
LEO
Country
Flag of CNCN / PRC
Related business
Manufacturer
SECM
Mission
Operational spacecraft
Bus & Motor
QIANFAN, Unknown motor
Mass
267 kg wet, ~267 kg dry
Launch date (UTC)
2026-05-17 (1 month ago)
Launch vehicle
CHANG ZHENG 8
Launch site
Wenchang Satellite Launch Center (WSC)
Object type
Payload
Rocket body
Debris
Shape & HBR
Unknown shape, 14.5 m
Radar Cross Section
Large (>1 m²)

Expand to show TLE details & history
Last TLE update: 1 day ago

TLE from 1 day ago
0 QIANFAN-147
1 69106U 26108C   26170.64308661  .00000053  00000-0  25498-4 0  9999
2 69106  89.0106  21.9540 0015924  95.5296 264.7701 14.02115287  4682
Epoch: 2026-06-19T15:26Z
TLE epoch observation values (Epoch: 2026-06-19T15:26:02.683Z)
Latitude
0.00002°
Longitude
-117.4263°
Altitude
890.58 km
Speed
7.406 km/s
True Right ascension
01h 27m 48s
True Declination
0° 00' 00"
Sunlit
Object was in daylight at epoch
Visualization orbit readout
Latitude
Unknown
Longitude
Unknown
Altitude
Unknown
Speed
Unknown
Apparent Right ascension
Unknown
Apparent Declination
Unknown
Sunlit
N/A
Visualization observer readout
Local Sidereal Time
07:16:21
Azimuth
Unknown
Elevation
Unknown
Doppler factor
Unknown
Orbital elements
Apogee altitude
895.02 km
Perigee altitude
871.893 km
Semi-major axis
7,261.593 km
Eccentricity
0.00159
Inclination
89.0106°
RAAN
21.954°
Arg. of periapsis
95.5296°
True anomaly
264.58842°
Mean anomaly
264.7701°
Eccentric anomaly
264.67926°
Mean motion
3.50748 °/min
Orbital period
102.64 mins
BSTAR
0.000025498
Loading maneuver chart data...
Computing Atmospheric mass density...
Loading historical data...
Loading historical data...
Loading historical data...
Loading historical data...
Loading historical data...
Loading historical data...
Loading historical data...

Documentation

Showing up to 5 results
|